When you browse on this site, cookies collect data to enhance your experience and personalize the content and advertising you see.
Visit our Privacy Policy to learn more. By continuing to use the site, you agree to this use of cookies and data.
  • In Hungary
  • List of Countries
  • For 7 days
  • Water Temperature
  • Satellite Maps
  • Weather Map
  • News
  • Weather Widgets
  • user-avatar
    Login

    Hourly Weather Mutare

    Today, 19 April, Friday

    Time Temperature Precipitation Wind Pressure Humidity
    00:00 +18°C° 0 mm 1 mps 656 mmHg 98%
    01:00 +16°C° 0 mm 1 mps 656 mmHg 98%
    02:00 +16°C° 0 mm 1 mps 656 mmHg 98%
    03:00 +16°C° 0 mm 1 mps 656 mmHg 98%
    04:00 +16°C° 0 mm 1 mps 656 mmHg 98%
    05:00 +16°C° 0 mm 1 mps 656 mmHg 98%
    06:00 +16°C° 0 mm 1 mps 656 mmHg 94%
    07:00 +18°C° 0 mm 1 mps 657 mmHg 91%
    08:00 +19°C° 0 mm 1 mps 657 mmHg 87%
    09:00 +20°C° 0 mm 2 mps 658 mmHg 76%
    10:00 +23°C° 0 mm 2 mps 658 mmHg 65%
    11:00 +25°C° 0 mm 3 mps 659 mmHg 54%
    12:00 +25°C° 0 mm 3 mps 658 mmHg 52%
    13:00 +25°C° 0 mm 3 mps 658 mmHg 50%
    14:00 +26°C° 0 mm 3 mps 657 mmHg 48%
    15:00 +24°C° 0 mm 3 mps 657 mmHg 55%
    16:00 +23°C° 0 mm 2 mps 656 mmHg 62%
    17:00 +21°C° 0 mm 2 mps 656 mmHg 69%
    18:00 +19°C° 0 mm 2 mps 656 mmHg 78%
    19:00 +17°C° 0 mm 2 mps 656 mmHg 87%
    20:00 +16°C° 0 mm 1 mps 656 mmHg 96%
    21:00 +15°C° 0 mm 1 mps 656 mmHg 97%
    22:00 +15°C° 0 mm 1 mps 656 mmHg 97%
    23:00 +15°C° 0 mm 1 mps 656 mmHg 98%

    Tomorrow, 20 April, Saturday

    Time Temperature Precipitation Wind Pressure Humidity
    00:00 +14°C° 0 mm 1 mps 655 mmHg 98%
    01:00 +14°C° 0 mm 1 mps 655 mmHg 97%
    02:00 +13°C° 0 mm 1 mps 655 mmHg 97%
    03:00 +13°C° 0 mm 1 mps 654 mmHg 96%
    04:00 +12°C° 0 mm 1 mps 654 mmHg 95%
    05:00 +12°C° 0 mm 1 mps 654 mmHg 94%
    06:00 +14°C° 0 mm 1 mps 654 mmHg 86%
    07:00 +15°C° 0 mm 1 mps 655 mmHg 77%
    08:00 +18°C° 0 mm 1 mps 656 mmHg 68%
    09:00 +20°C° 0 mm 1 mps 657 mmHg 58%
    10:00 +21°C° 0 mm 2 mps 657 mmHg 48%
    11:00 +24°C° 0 mm 2 mps 658 mmHg 39%
    12:00 +25°C° 0 mm 2 mps 657 mmHg 38%
    13:00 +25°C° 0 mm 3 mps 656 mmHg 38%
    14:00 +26°C° 0 mm 3 mps 656 mmHg 38%
    15:00 +24°C° 0 mm 2 mps 655 mmHg 47%
    16:00 +23°C° 0 mm 2 mps 655 mmHg 56%
    17:00 +21°C° 0 mm 1 mps 654 mmHg 64%
    18:00 +19°C° 0 mm 1 mps 654 mmHg 74%
    19:00 +16°C° 0 mm 1 mps 654 mmHg 83%
    20:00 +14°C° 0 mm 1 mps 654 mmHg 92%
    21:00 +14°C° 0 mm 1 mps 654 mmHg 93%
    22:00 +14°C° 0 mm 1 mps 654 mmHg 94%
    23:00 +13°C° 0 mm 1 mps 654 mmHg 96%

    Day after tomorrow, 21 April, Sunday

    Time Temperature Precipitation Wind Pressure Humidity
    00:00 +13°C° 0 mm 1 mps 653 mmHg 95%
    01:00 +13°C° 0 mm 1 mps 653 mmHg 95%
    02:00 +12°C° 0 mm 0 mps 653 mmHg 94%
    03:00 +11°C° 0 mm 0 mps 653 mmHg 93%
    04:00 +11°C° 0 mm 0 mps 652 mmHg 93%
    05:00 +11°C° 0 mm 0 mps 652 mmHg 92%
    06:00 +13°C° 0 mm 0 mps 653 mmHg 83%
    07:00 +15°C° 0 mm 0 mps 654 mmHg 74%
    08:00 +17°C° 0 mm 0 mps 655 mmHg 65%
    09:00 +21°C° 0 mm 1 mps 656 mmHg 55%
    10:00 +23°C° 0 mm 1 mps 656 mmHg 45%
    11:00 +25°C° 0 mm 2 mps 656 mmHg 34%
    12:00 +25°C° 0 mm 2 mps 656 mmHg 35%
    13:00 +26°C° 0 mm 2 mps 655 mmHg 35%
    14:00 +26°C° 0 mm 2 mps 655 mmHg 36%
    15:00 +24°C° 0 mm 2 mps 654 mmHg 45%
    16:00 +23°C° 0 mm 2 mps 654 mmHg 54%
    17:00 +20°C° 0 mm 2 mps 653 mmHg 62%
    18:00 +20°C° 0 mm 1 mps 653 mmHg 72%
    19:00 +18°C° 0 mm 1 mps 653 mmHg 82%
    20:00 +15°C° 0 mm 1 mps 653 mmHg 92%
    21:00 +15°C° 0 mm 1 mps 653 mmHg 93%
    22:00 +14°C° 0 mm 1 mps 653 mmHg 95%
    23:00 +14°C° 0 mm 1 mps 653 mmHg 97%

    22 April, Monday

    Time Temperature Precipitation Wind Pressure Humidity
    00:00 +14°C° 0 mm 1 mps 653 mmHg 97%
    01:00 +14°C° 0 mm 1 mps 653 mmHg 98%
    02:00 +13°C° 0 mm 0 mps 652 mmHg 98%
    03:00 +14°C° 0 mm 1 mps 653 mmHg 98%
    04:00 +14°C° 0 mm 1 mps 653 mmHg 98%
    05:00 +14°C° 0 mm 1 mps 653 mmHg 98%
    06:00 +15°C° 0 mm 1 mps 654 mmHg 94%
    07:00 +16°C° 0 mm 1 mps 654 mmHg 90%
    08:00 +18°C° 0 mm 1 mps 655 mmHg 86%
    09:00 +19°C° 0 mm 1 mps 655 mmHg 78%
    10:00 +21°C° 0 mm 1 mps 655 mmHg 70%
    11:00 +22°C° 0 mm 1 mps 656 mmHg 62%
    12:00 +23°C° 0 mm 1 mps 655 mmHg 58%
    13:00 +24°C° 0 mm 1 mps 655 mmHg 53%
    14:00 +25°C° 0 mm 1 mps 654 mmHg 49%
    15:00 +24°C° 0 mm 1 mps 654 mmHg 54%
    16:00 +23°C° 0 mm 1 mps 654 mmHg 59%
    17:00 +22°C° 0 mm 1 mps 653 mmHg 64%
    18:00 +20°C° 0 mm 1 mps 653 mmHg 70%
    19:00 +18°C° 0 mm 1 mps 653 mmHg 76%
    20:00 +15°C° 0 mm 1 mps 654 mmHg 82%
    21:00 +14°C° 0 mm 1 mps 653 mmHg 82%
    22:00 +14°C° 0 mm 1 mps 653 mmHg 82%
    23:00 +14°C° 0 mm 1 mps 653 mmHg 82%

    23 April, Tuesday

    Time Temperature Precipitation Wind Pressure Humidity
    00:00 +13°C° 0 mm 1 mps 653 mmHg 82%
    01:00 +13°C° 0 mm 1 mps 653 mmHg 82%
    02:00 +13°C° 0 mm 1 mps 652 mmHg 82%
    03:00 +13°C° 0 mm 1 mps 652 mmHg 85%
    04:00 +12°C° 0 mm 1 mps 653 mmHg 87%
    05:00 +11°C° 0 mm 0 mps 653 mmHg 89%
    06:00 +13°C° 0 mm 0 mps 654 mmHg 84%
    07:00 +15°C° 0 mm 0 mps 655 mmHg 79%
    08:00 +17°C° 0 mm 0 mps 656 mmHg 74%
    09:00 +21°C° 0 mm 1 mps 656 mmHg 68%
    10:00 +23°C° 0 mm 1 mps 656 mmHg 62%
    11:00 +24°C° 0 mm 1 mps 656 mmHg 56%
    12:00 +25°C° 0 mm 1 mps 656 mmHg 55%
    13:00 +25°C° 0 mm 2 mps 655 mmHg 54%
    14:00 +25°C° 0 mm 2 mps 655 mmHg 52%
    15:00 +24°C° 0 mm 2 mps 654 mmHg 58%
    16:00 +23°C° 0 mm 2 mps 654 mmHg 64%
    17:00 +22°C° 0 mm 1 mps 654 mmHg 69%
    18:00 +20°C° 0 mm 1 mps 654 mmHg 77%
    19:00 +19°C° 0 mm 1 mps 654 mmHg 85%
    20:00 +16°C° 0 mm 1 mps 654 mmHg 92%
    21:00 +15°C° 0 mm 1 mps 654 mmHg 93%
    22:00 +15°C° 0 mm 1 mps 654 mmHg 95%
    23:00 +14°C° 0 mm 0 mps 654 mmHg 96%

    24 April, Wednesday

    Time Temperature Precipitation Wind Pressure Humidity
    00:00 +14°C° 0 mm 0 mps 653 mmHg 96%
    01:00 +13°C° 0 mm 0 mps 653 mmHg 96%
    02:00 +13°C° 0 mm 0 mps 653 mmHg 96%
    03:00 +13°C° 0 mm 0 mps 653 mmHg 96%
    04:00 +13°C° 0 mm 0 mps 653 mmHg 96%
    05:00 +13°C° 0 mm 0 mps 653 mmHg 96%
    06:00 +14°C° 0 mm 0 mps 654 mmHg 89%
    07:00 +16°C° 0 mm 0 mps 655 mmHg 82%
    08:00 +18°C° 0 mm 0 mps 655 mmHg 75%
    09:00 +20°C° 0 mm 0 mps 656 mmHg 68%
    10:00 +24°C° 0 mm 1 mps 656 mmHg 60%
    11:00 +27°C° 0 mm 1 mps 656 mmHg 52%
    12:00 +26°C° 0 mm 1 mps 656 mmHg 54%
    13:00 +26°C° 0 mm 1 mps 655 mmHg 55%
    14:00 +25°C° 0 mm 2 mps 654 mmHg 57%
    15:00 +25°C° 0 mm 2 mps 654 mmHg 62%
    16:00 +24°C° 0 mm 1 mps 654 mmHg 67%
    17:00 +23°C° 0 mm 1 mps 654 mmHg 73%
    18:00 +21°C° 0 mm 1 mps 654 mmHg 80%
    19:00 +19°C° 0 mm 1 mps 654 mmHg 87%
    20:00 +18°C° 0 mm 1 mps 654 mmHg 94%
    21:00 +18°C° 0 mm 1 mps 654 mmHg 95%
    22:00 +16°C° 0 mm 1 mps 654 mmHg 96%
    23:00 +16°C° 0 mm 1 mps 654 mmHg 97%
    Show more